Location: Bégole
(43.1574°N, 0.3291°E)
Time: 01:05:38
(UTC+00:00)

deb Delta 89 - Pass Details

Date: 24 February 2024
Orbit: 714 x 2021 km, 97.5° (Epoch: 13 April)

Event Time Altitude Azimuth Distance (km) Brightness Sun altitude
Rises 02:47:29 0° 10° (N) 5,449 ? -42.4°
Reaches altitude 10° 02:50:44 10° 10° (N) 4,478 ? -41.9°
Enters shadow 03:01:30 79° 336° (NNW) 1,992 ? -40.3°
